This demonstration page uses our WeatherBlox Daily Observations layout. Learn more.

Left ArrowRight Arrow

Hourly Observations for April 19, 2021

Temp ( °F °C ) Dew Point ( °F °C ) Humidity (%) Winds ( mph kmh ) Pressure ( in mb ) Visibility ( mi km ) Precip ( " mm )
12:15 am 00:15 Mostly Cloudy 48 9.1 32 0 53 53 SSW 6 9 29.94 1014 10 16 0.00 0.00
12:35 am 00:35 Cloudy 47 8.1 33 0.4 59 59 Calm 29.96 1015 10 16 0.00 0.00
12:55 am 00:55 Mostly Cloudy 47 8.6 37 2.7 67 67 NNE 16 26 29.99 1015 10 16 0.00 0.00
1:15 am 01:15 Clear 45 7.4 37 3 74 74 NNE 14 22 30.01 1016 10 16 0.00 0.00
1:35 am 01:35 Clear 44 6.6 37 3 78 78 NNE 15 24 30.01 1016 10 16 0.00 0.00
1:55 am 01:55 Clear 42 5.8 37 2.7 81 81 NNE 20 31 30.02 1017 10 16 0.00 0.00
2:15 am 02:15 Clear 41 5 36 2.3 83 83 NNE 13 20 30.03 1017 10 16 0.00 0.00
2:35 am 02:35 Clear 40 4.2 36 2 86 86 NNE 16 26 30.04 1017 10 16 0.00 0.00
2:55 am 02:55 Clear 38 3.6 35 1.5 86 86 NNE 16 26 30.05 1018 10 16 0.00 0.00
3:15 am 03:15 Clear 38 3.1 34 1.1 87 87 N 12 19 30.06 1018 10 16 0.00 0.00
3:35 am 03:35 Clear 37 2.6 34 1 89 89 NNE 14 22 30.06 1018 10 16 0.00 0.00
3:55 am 03:55 Partly Cloudy 36 2.2 33 0.5 89 89 NNE 12 19 30.07 1018 10 16 0.00 0.00
4:15 am 04:15 Mostly Cloudy 36 2.2 33 0.8 91 91 NNE 16 26 30.08 1019 10 16 0.00 0.00
4:35 am 04:35 Cloudy 37 2.5 33 0.5 87 87 NNE 20 31 30.09 1019 10 16 0.00 0.00
4:55 am 04:55 Cloudy 36 2.4 32 0 84 84 NNE 22 35 30.09 1019 10 16 0.00 0.00
5:15 am 05:15 Cloudy 36 2 31 -0.3 85 85 NNE 21 33 30.10 1019 10 16 0.00 0.00
5:35 am 05:35 Cloudy 35 1.8 31 -0.5 85 85 NNE 18 30 30.11 1020 10 16 0.00 0.00
5:55 am 05:55 Cloudy 34 1.3 30 -1 85 85 N 23 37 30.12 1020 10 16 0.00 0.00
6:15 am 06:15 Cloudy 33 0.7 29 -1.7 84 84 NNE 24 39 30.14 1021 10 16 0.00 0.00
6:35 am 06:35 Cloudy 33 0.5 29 -1.8 85 85 NNE 18 30 30.15 1021 10 16 0.00 0.00
6:55 am 06:55 Cloudy 33 0.5 29 -1.6 86 86 NNE 20 31 30.15 1021 10 16 0.00 0.00
7:15 am 07:15 Cloudy 33 0.3 28 -2 85 85 NNE 21 33 30.16 1021 10 16 0.00 0.00
7:35 am 07:35 Cloudy 32 0.2 28 -2 85 85 N 25 41 30.17 1022 10 16 0.00 0.00
7:55 am 07:55 Cloudy 32 0 26 -3.1 80 80 NNE 22 35 30.20 1023 10 16 0.00 0.00
8:15 am 08:15 Cloudy 32 0 26 -3.2 79 79 N 21 33 30.22 1023 10 16 0.00 0.00
8:35 am 08:35 Cloudy 32 -0.1 26 -3.6 78 78 N 22 35 30.23 1024 10 16 0.00 0.00
8:55 am 08:55 Cloudy 32 0 25 -4.1 74 74 NNE 25 41 30.23 1024 10 16 0.00 0.00
9:15 am 09:15 Cloudy 32 0 24 -4.2 74 74 NNE 26 43 30.23 1024 10 16 0.00 0.00
9:35 am 09:35 Cloudy 32 -0.2 24 -4.7 72 72 N 26 43 30.23 1024 10 16 0.00 0.00
9:55 am 09:55 Cloudy 32 0 25 -4 75 75 N 17 28 30.24 1024 10 16 0.00 0.00
10:15 am 10:15 Cloudy 32 0 24 -4.6 71 71 NNE 22 35 30.24 1024 10 16 0.00 0.00
10:35 am 10:35 Cloudy 31 -0.4 23 -5 71 71 N 20 31 30.24 1024 10 16 0.00 0.00
10:55 am 10:55 Cloudy 31 -0.4 22 -5.3 70 70 NNE 24 39 30.25 1024 10 16 0.00 0.00
11:15 am 11:15 Cloudy 32 0 24 -4.7 71 71 NNE 23 37 30.25 1024 10 16 0.00 0.00
11:35 am 11:35 Cloudy 32 0.1 24 -4.7 70 70 NNE 21 33 30.24 1024 10 16 0.00 0.00
11:55 am 11:55 Cloudy 33 0.8 25 -3.8 72 72 N 16 26 30.24 1024 10 16 0.00 0.00
12:15 pm 12:15 Cloudy 33 0.7 25 -4.1 71 71 NNE 18 30 30.24 1024 10 16 0.00 0.00
12:35 pm 12:35 Cloudy 34 1 25 -4.1 69 69 NNE 23 37 30.24 1024 10 16 0.00 0.00
12:55 pm 12:55 Cloudy 35 1.5 24 -4.4 65 65 NNE 23 37 30.23 1024 10 16 0.00 0.00
1:15 pm 13:15 Cloudy 34 1 24 -4.5 67 67 NNE 20 31 30.24 1024 10 16 0.00 0.00
1:35 pm 13:35 Cloudy with Light Snow 33 0.8 25 -4.1 70 70 N 17 28 30.23 1024 7 11 0.00 0.00
1:55 pm 13:55 Cloudy 35 1.5 25 -4 67 67 N 18 30 30.23 1024 10 16 0.00 0.00
2:15 pm 14:15 Cloudy with Haze 33 0.7 26 -3.2 75 75 N 16 26 30.24 1024 5 8 0.00 0.00
2:35 pm 14:35 Cloudy 34 1.1 27 -2.8 76 76 NNE 17 28 30.23 1024 10 16 0.00 0.00
2:55 pm 14:55 Cloudy with Light Snow 32 0.2 28 -2.3 84 84 N 16 26 30.25 1024 3 4 0.00 0.00
3:15 pm 15:15 Cloudy with Light Snow 32 0 29 -1.7 88 88 N 16 26 30.26 1025 2 2 0.00 0.00
3:35 pm 15:35 Cloudy with Light Snow 31 -0.6 28 -2.1 90 90 N 16 26 30.27 1025 1 2 0.00 0.00
3:55 pm 15:55 Cloudy with Light Snow 31 -0.4 29 -1.9 90 90 N 13 20 30.26 1025 2 3 0.00 0.00
4:15 pm 16:15 Cloudy with Light Snow 32 -0.1 29 -1.5 90 90 N 10 17 30.26 1025 2 3 0.00 0.00
4:35 pm 16:35 Cloudy with Light Snow 32 0 29 -1.4 90 90 N 14 22 30.25 1024 2 3 0.00 0.00
4:55 pm 16:55 Cloudy with Light Snow 32 0.2 30 -1.3 90 90 N 18 30 30.24 1024 3 4 0.00 0.00
5:15 pm 17:15 Windy with Snow Likely 32 0.2 30 -1.3 90 90 N 20 31 30.23 1024 3 4 0.00 0.00
5:35 pm 17:35 Cloudy with Light Snow 33 0.4 28 -2 84 84 N 15 24 30.24 1024 4 6 0.00 0.00
5:55 pm 17:55 Cloudy with Light Snow 32 0 29 -1.9 87 87 N 10 17 30.25 1024 3 4 0.00 0.00
6:15 pm 18:15 Cloudy with Light Snow 33 0.8 27 -2.7 78 78 NNE 15 24 30.24 1024 10 16 0.00 0.00
6:35 pm 18:35 Cloudy 34 1 25 -3.7 71 71 NNE 16 26 30.23 1024 10 16 0.00 0.00
6:55 pm 18:55 Cloudy 34 1.1 25 -3.7 71 71 N 15 24 30.23 1024 10 16 0.00 0.00
7:15 pm 19:15 Cloudy 34 1.1 25 -3.7 71 71 NNE 17 28 30.22 1024 10 16 0.00 0.00
7:35 pm 19:35 Cloudy 33 0.8 25 -3.9 71 71 N 21 33 30.24 1024 10 16 0.00 0.00
7:55 pm 19:55 Cloudy 32 -0.2 26 -3.5 79 79 N 17 28 30.26 1025 10 16 0.00 0.00
8:15 pm 20:15 Cloudy 31 -0.7 26 -3.1 84 84 N 16 26 30.25 1024 10 16 0.00 0.00
8:35 pm 20:35 Cloudy with Light Snow 30 -1 27 -2.6 89 89 N 18 30 30.25 1025 7 11 0.00 0.00
8:55 pm 20:55 Cloudy with Light Snow 30 -1.1 27 -2.7 89 89 N 14 22 30.29 1026 7 11 0.00 0.00
9:15 pm 21:15 Cloudy with Light Snow 30 -1.3 27 -2.6 91 91 N 10 17 30.31 1026 2 2 0.00 0.00
9:35 pm 21:35 Cloudy with Light Snow 29 -1.5 28 -2.5 93 93 N 6 9 30.32 1027 2 3 0.01 0.25
9:55 pm 21:55 Cloudy with Light Snow 29 -1.5 28 -2.3 94 94 NNW 7 11 30.32 1027 2 2 0.01 0.25
10:15 pm 22:15 Cloudy with Snow 29 -1.5 28 -2.1 96 96 NNW 8 13 30.33 1027 1 2 0.01 0.25
10:35 pm 22:35 Cloudy with Light Snow 29 -1.5 28 -2.1 96 96 NNW 7 11 30.33 1027 2 3 0.01 0.25
10:55 pm 22:55 Cloudy with Light Snow 30 -1.2 28 -2 94 94 NW 7 11 30.34 1027 1 2 0.02 0.51
11:15 pm 23:15 Cloudy with Light Snow 30 -1.3 28 -2 95 95 NNW 9 15 30.34 1027 1 2 0.01 0.25
11:35 pm 23:35 Cloudy with Light Snow 30 -1.2 28 -2 94 94 NW 7 11 30.34 1027 2 3 0.01 0.25
11:55 pm 23:55 Cloudy with Light Snow 29 -1.5 28 -2.1 96 96 N 14 22 30.33 1027 2 3 0.01 0.25

Powered by AerisWeather